| time (UTC) | temp F | wind direction | speed MPH | gust MPH | rain 1hr in | rain 24hr in | rain mn in | humidity % | barometer mb |
| 20260903170644 | 92 | 175 | 9.0 | 17.0 | 0.00 | 0.00 | 0.00 | 48 | 1016.3 |
| 20260903165637 | 92 | 146 | 9.0 | 14.0 | 0.00 | 0.00 | 0.00 | 49 | 1016.4 |
| 20260903164637 | 92 | 177 | 9.0 | 17.0 | 0.00 | 0.00 | 0.00 | 49 | 1016.5 |
| 20260903162638 | 91 | 200 | 9.0 | 18.0 | 0.00 | 0.00 | 0.00 | 51 | 1016.5 |
| 20260903161637 | 91 | 205 | 11.0 | 18.0 | 0.00 | 0.00 | 0.00 | 51 | 1016.6 |
| 20260903160637 | 90 | 179 | 10.0 | 20.0 | 0.00 | 0.00 | 0.00 | 51 | 1016.6 |
| 20260903155639 | 89 | 163 | 11.0 | 17.0 | 0.00 | 0.00 | 0.00 | 52 | 1016.7 |
| 20260903154637 | 89 | 183 | 9.0 | 16.0 | 0.00 | 0.00 | 0.00 | 53 | 1016.7 |
| 20260903153638 | 89 | 174 | 8.0 | 14.0 | 0.00 | 0.00 | 0.00 | 54 | 1016.8 |
| 20260903152632 | 88 | 167 | 8.0 | 17.0 | 0.00 | 0.00 | 0.00 | 55 | 1016.8 |
| 20260903151633 | 87 | 178 | 7.0 | 14.0 | 0.00 | 0.00 | 0.00 | 56 | 1017.0 |
| 20260903145631 | 86 | 165 | 6.0 | 15.0 | 0.00 | 0.00 | 0.00 | 59 | 1017.0 |
| 20260903144630 | 85 | 156 | 6.0 | 13.0 | 0.00 | 0.00 | 0.00 | 61 | 1017.0 |
| 20260903143630 | 84 | 157 | 6.0 | 10.0 | 0.00 | 0.00 | 0.00 | 63 | 1017.0 |
| 20260903142630 | 83 | 158 | 8.0 | 11.0 | 0.00 | 0.00 | 0.00 | 64 | 1017.2 |
| 20260903142117 | 83 | 140 | 8.0 | 14.0 | 0.00 | 0.00 | 0.00 | 65 | 1017.2 |
| 20260903140630 | 82 | 153 | 7.0 | 14.0 | 0.00 | 0.00 | 0.00 | 67 | 1017.3 |
| 20260903135629 | 82 | 153 | 6.0 | 11.0 | 0.00 | 0.00 | 0.00 | 68 | 1017.4 |
| 20260903134629 | 81 | 180 | 6.0 | 11.0 | 0.00 | 0.00 | 0.00 | 69 | 1017.5 |
| 20260903134112 | 80 | 165 | 5.0 | 10.0 | 0.00 | 0.00 | 0.00 | 72 | 1017.5 |
| 20260903132630 | 79 | 168 | 4.0 | 6.0 | 0.00 | 0.00 | 0.00 | 73 | 1017.5 |
| 20260903132109 | 79 | 148 | 3.0 | 4.0 | 0.00 | 0.00 | 0.00 | 75 | 1017.3 |
| 20260903130629 | 78 | 172 | 3.0 | 5.0 | 0.00 | 0.00 | 0.00 | 75 | 1017.3 |
| 20260903125630 | 77 | 157 | 2.0 | 4.0 | 0.00 | 0.00 | 0.00 | 78 | 1017.4 |
| 20260903124632 | 76 | 147 | 2.0 | 4.0 | 0.00 | 0.00 | 0.00 | 81 | 1017.3 |
| 20260903124110 | 74 | 126 | 0.0 | 3.0 | 0.00 | 0.00 | 0.00 | 83 | 1017.3 |
| 20260903122630 | 74 | 132 | 0.0 | 0.0 | 0.00 | 0.00 | 0.00 | 83 | 1017.2 |
| 20260903121628 | 74 | 132 | 0.0 | 0.0 | 0.00 | 0.00 | 0.00 | 84 | 1017.0 |
| 20260903120626 | 73 | 132 | 0.0 | 0.0 | 0.00 | 0.00 | 0.00 | 84 | 1016.9 |
| 20260903115625 | 73 | 132 | 0.0 | 0.0 | 0.00 | 0.00 | 0.00 | 85 | 1016.8 |
| 20260903114625 | 73 | 132 | 0.0 | 0.0 | 0.00 | 0.00 | 0.00 | 84 | 1016.9 |
| 20260903113625 | 74 | 132 | 0.0 | 0.0 | 0.00 | 0.00 | 0.00 | 83 | 1016.8 |
| 20260903112626 | 74 | 132 | 0.0 | 0.0 | 0.00 | 0.00 | 0.00 | 82 | 1016.6 |
| 20260903111627 | 74 | 132 | 0.0 | 0.0 | 0.00 | 0.00 | 0.00 | 82 | 1016.6 |
| 20260903105626 | 76 | 132 | 0.0 | 0.0 | 0.00 | 0.00 | 0.00 | 80 | 1016.6 |
| 20260903104623 | 76 | 132 | 0.0 | 0.0 | 0.00 | 0.00 | 0.00 | 79 | 1016.5 |
| 20260903103624 | 75 | 132 | 0.0 | 0.0 | 0.00 | 0.00 | 0.00 | 80 | 1016.4 |
| 20260903102617 | 75 | 132 | 0.0 | 2.0 | 0.00 | 0.00 | 0.00 | 80 | 1016.4 |
| 20260903101617 | 76 | 136 | 1.0 | 4.0 | 0.00 | 0.00 | 0.00 | 80 | 1016.5 |
| 20260903100618 | 76 | 131 | 2.0 | 4.0 | 0.00 | 0.00 | 0.00 | 80 | 1016.4 |
| 20260903095617 | 75 | 117 | 2.0 | 6.0 | 0.00 | 0.00 | 0.00 | 80 | 1016.4 |
| 20260903094617 | 76 | 128 | 2.0 | 3.0 | 0.00 | 0.00 | 0.00 | 80 | 1016.4 |
| 20260903093618 | 77 | 119 | 0.0 | 4.0 | 0.00 | 0.00 | 0.00 | 77 | 1016.4 |
| 20260903093056 | 78 | 124 | 0.0 | 0.0 | 0.00 | 0.00 | 0.00 | 75 | 1016.4 |
| 20260903091618 | 78 | 165 | 0.0 | 0.0 | 0.00 | 0.00 | 0.00 | 75 | 1016.5 |
| 20260903090618 | 78 | 155 | 0.0 | 0.0 | 0.00 | 0.00 | 0.00 | 74 | 1016.3 |
| 20260903085614 | 78 | 130 | 0.0 | 0.0 | 0.00 | 0.00 | 0.00 | 74 | 1016.3 |
| 20260903084614 | 79 | 130 | 0.0 | 0.0 | 0.00 | 0.00 | 0.00 | 73 | 1016.3 |
| 20260903083613 | 79 | 130 | 0.0 | 0.0 | 0.00 | 0.00 | 0.00 | 73 | 1016.3 |
| 20260903083114 | 79 | 133 | 3.0 | 4.0 | 0.00 | 0.00 | 0.00 | 73 | 1016.2 |
| 20260903081614 | 78 | 132 | 3.0 | 4.0 | 0.00 | 0.00 | 0.00 | 73 | 1016.3 |
| 20260903080612 | 78 | 130 | 2.0 | 3.0 | 0.00 | 0.00 | 0.00 | 73 | 1016.1 |
| 20260903075613 | 79 | 123 | 2.0 | 3.0 | 0.00 | 0.00 | 0.00 | 72 | 1016.2 |
| 20260903074608 | 79 | 131 | 1.0 | 3.0 | 0.00 | 0.00 | 0.00 | 71 | 1016.2 |
| 20260903073608 | 80 | 136 | 1.0 | 2.0 | 0.00 | 0.00 | 0.00 | 70 | 1016.2 |
| 20260903072609 | 80 | 140 | 2.0 | 3.0 | 0.00 | 0.00 | 0.00 | 70 | 1016.2 |
| 20260903071609 | 80 | 134 | 2.0 | 3.0 | 0.00 | 0.00 | 0.00 | 70 | 1016.2 |
| 20260903070604 | 80 | 152 | 2.0 | 4.0 | 0.00 | 0.00 | 0.00 | 69 | 1016.1 |
| 20260903065605 | 80 | 150 | 3.0 | 5.0 | 0.00 | 0.00 | 0.00 | 69 | 1016.1 |
| 20260903064604 | 80 | 184 | 3.0 | 6.0 | 0.00 | 0.00 | 0.00 | 68 | 1016.2 |
| 20260903063604 | 80 | 180 | 1.0 | 5.0 | 0.00 | 0.00 | 0.00 | 68 | 1016.1 |
| 20260903063041 | 80 | 192 | 0.0 | 0.0 | 0.00 | 0.00 | 0.00 | 69 | 1016.1 |
| 20260903061603 | 79 | 171 | 0.0 | 0.0 | 0.00 | 0.00 | 0.00 | 70 | 1015.9 |
| 20260903060603 | 80 | 147 | 0.0 | 0.0 | 0.00 | 0.00 | 0.00 | 69 | 1016.0 |
| 20260903055602 | 80 | 124 | 0.0 | 0.0 | 0.00 | 0.00 | 0.00 | 69 | 1016.0 |
| 20260903054603 | 80 | 132 | 0.0 | 0.0 | 0.00 | 0.00 | 0.00 | 68 | 1016.1 |
| 20260903053601 | 82 | 132 | 0.0 | 0.0 | 0.00 | 0.00 | 0.00 | 65 | 1016.0 |
| 20260903052603 | 83 | 142 | 0.0 | 0.0 | 0.00 | 0.00 | 0.00 | 63 | 1015.9 |
| 20260903051601 | 83 | 133 | 0.0 | 0.0 | 0.00 | 0.00 | 0.00 | 62 | 1015.9 |
| 20260903050600 | 84 | 133 | 0.0 | 0.0 | 0.00 | 0.00 | 0.00 | 61 | 1015.9 |
| 20260903045601 | 84 | 133 | 0.0 | 1.0 | 0.00 | 0.00 | 0.00 | 60 | 1015.7 |
| 20260903044603 | 84 | 133 | 2.0 | 3.0 | 0.00 | 0.00 | 0.00 | 60 | 1015.6 |
| 20260903043601 | 85 | 132 | 3.0 | 4.0 | 0.00 | 0.00 | 0.00 | 60 | 1015.7 |
| 20260903042602 | 85 | 144 | 3.0 | 7.0 | 0.00 | 0.00 | 0.00 | 59 | 1015.6 |
| 20260903041602 | 85 | 141 | 3.0 | 5.0 | 0.00 | 0.00 | 0.00 | 58 | 1015.9 |
| 20260903040604 | 85 | 143 | 4.0 | 6.0 | 0.00 | 0.00 | 0.00 | 58 | 1016.0 |
| 20260903035603 | 85 | 132 | 4.0 | 8.0 | 0.00 | 0.00 | 0.00 | 57 | 1015.9 |
| 20260903034601 | 86 | 136 | 4.0 | 8.0 | 0.00 | 0.00 | 0.00 | 57 | 1015.9 |
| 20260903033602 | 86 | 131 | 4.0 | 7.0 | 0.00 | 0.00 | 0.00 | 57 | 1015.9 |
| 20260903032602 | 86 | 144 | 4.0 | 8.0 | 0.00 | 0.00 | 0.00 | 56 | 1015.9 |
| 20260903031601 | 86 | 134 | 5.0 | 7.0 | 0.00 | 0.00 | 0.00 | 56 | 1015.7 |
| 20260903030601 | 87 | 132 | 4.0 | 7.0 | 0.00 | 0.00 | 0.00 | 56 | 1015.9 |
| 20260903025601 | 87 | 149 | 4.0 | 7.0 | 0.00 | 0.00 | 0.00 | 56 | 1015.7 |
| 20260903024601 | 87 | 123 | 3.0 | 5.0 | 0.00 | 0.00 | 0.00 | 55 | 1015.9 |
| 20260903023601 | 88 | 133 | 4.0 | 7.0 | 0.00 | 0.00 | 0.00 | 54 | 1015.5 |
| 20260903022601 | 88 | 128 | 4.0 | 8.0 | 0.00 | 0.00 | 0.00 | 54 | 1015.5 |
| 20260903021603 | 88 | 155 | 4.0 | 8.0 | 0.00 | 0.00 | 0.00 | 53 | 1015.4 |
| 20260903020557 | 89 | 154 | 5.0 | 9.0 | 0.00 | 0.00 | 0.00 | 53 | 1015.3 |
| 20260903015557 | 89 | 133 | 5.0 | 8.0 | 0.00 | 0.00 | 0.00 | 52 | 1015.0 |
| 20260903014556 | 89 | 126 | 5.0 | 9.0 | 0.00 | 0.00 | 0.00 | 51 | 1014.9 |
| 20260903013601 | 89 | 166 | 5.0 | 11.0 | 0.00 | 0.00 | 0.00 | 51 | 1014.8 |
| 20260903012559 | 90 | 154 | 4.0 | 8.0 | 0.00 | 0.00 | 0.00 | 50 | 1014.7 |
| 20260903012041 | 90 | 133 | 4.0 | 6.0 | 0.00 | 0.00 | 0.00 | 49 | 1014.5 |
| 20260903010558 | 91 | 150 | 4.0 | 7.0 | 0.00 | 0.00 | 0.00 | 48 | 1014.5 |
| 20260903005556 | 92 | 135 | 6.0 | 10.0 | 0.00 | 0.00 | 0.00 | 47 | 1014.4 |
| 20260903004558 | 92 | 152 | 6.0 | 13.0 | 0.00 | 0.00 | 0.00 | 46 | 1014.4 |
| 20260903004043 | 92 | 119 | 5.0 | 7.0 | 0.00 | 0.00 | 0.00 | 45 | 1014.3 |
| 20260903003024 | 93 | 123 | 5.0 | 10.0 | 0.00 | 0.00 | 0.00 | 44 | 1014.2 |
| 20260903002024 | 94 | 121 | 5.0 | 10.0 | 0.00 | 0.00 | 0.00 | 43 | 1014.2 |
| 20260903000550 | 94 | 156 | 6.0 | 9.0 | 0.00 | 0.00 | 0.00 | 42 | 1014.2 |
| 20260902235548 | 95 | 182 | 5.0 | 13.0 | 0.00 | 0.00 | 0.00 | 40 | 1014.2 |
| 20260902234548 | 95 | 184 | 7.0 | 11.0 | 0.00 | 0.00 | 0.00 | 40 | 1014.2 |
| 20260902233549 | 95 | 163 | 8.0 | 12.0 | 0.00 | 0.00 | 0.00 | 39 | 1014.2 |
| 20260902232548 | 96 | 178 | 8.0 | 14.0 | 0.00 | 0.00 | 0.00 | 40 | 1014.3 |
| 20260902231549 | 96 | 162 | 8.0 | 12.0 | 0.00 | 0.00 | 0.00 | 39 | 1014.4 |
| 20260902230547 | 96 | 183 | 7.0 | 14.0 | 0.00 | 0.00 | 0.00 | 38 | 1014.4 |
| 20260902225547 | 95 | 118 | 2.0 | 9.0 | 0.00 | 0.00 | 0.00 | 41 | 1014.3 |
| 20260902224545 | 95 | 111 | 3.0 | 6.0 | 0.00 | 0.00 | 0.00 | 41 | 1014.4 |
| 20260902223544 | 95 | 135 | 4.0 | 8.0 | 0.00 | 0.00 | 0.00 | 40 | 1014.5 |
| 20260902222541 | 96 | 128 | 5.0 | 9.0 | 0.00 | 0.00 | 0.00 | 38 | 1014.7 |
| 20260902221544 | 97 | 123 | 5.0 | 8.0 | 0.00 | 0.00 | 0.00 | 37 | 1014.7 |
| 20260902220543 | 96 | 144 | 4.0 | 10.0 | 0.00 | 0.00 | 0.00 | 38 | 1014.8 |
| 20260902215536 | 96 | 113 | 5.0 | 9.0 | 0.00 | 0.00 | 0.00 | 38 | 1014.8 |
| 20260902215014 | 97 | 121 | 7.0 | 11.0 | 0.00 | 0.00 | 0.00 | 37 | 1014.9 |
| 20260902213535 | 97 | 159 | 8.0 | 15.0 | 0.00 | 0.00 | 0.00 | 37 | 1015.0 |
| 20260902212535 | 97 | 116 | 4.0 | 11.0 | 0.00 | 0.00 | 0.00 | 38 | 1014.8 |
| 20260902211535 | 95 | 120 | 4.0 | 8.0 | 0.00 | 0.00 | 0.00 | 40 | 1015.2 |
| 20260902210530 | 96 | 149 | 5.0 | 11.0 | 0.00 | 0.00 | 0.00 | 39 | 1015.2 |
| 20260902205529 | 96 | 77 | 3.0 | 7.0 | 0.00 | 0.00 | 0.00 | 40 | 1015.1 |
| 20260902204530 | 95 | 121 | 6.0 | 9.0 | 0.00 | 0.00 | 0.00 | 40 | 1015.3 |
| 20260902204019 | 96 | 153 | 6.0 | 13.0 | 0.00 | 0.00 | 0.00 | 39 | 1015.3 |
| 20260902203017 | 97 | 162 | 3.0 | 11.0 | 0.00 | 0.00 | 0.00 | 38 | 1015.5 |
| 20260902201530 | 98 | 123 | 5.0 | 10.0 | 0.00 | 0.00 | 0.00 | 37 | 1015.5 |
| 20260902201023 | 98 | 178 | 3.0 | 11.0 | 0.00 | 0.00 | 0.00 | 37 | 1015.7 |
| 20260902195531 | 97 | 57 | 1.0 | 3.0 | 0.00 | 0.00 | 0.00 | 38 | 1015.9 |
| 20260902194531 | 95 | 144 | 3.0 | 8.0 | 0.00 | 0.00 | 0.00 | 40 | 1016.2 |
| 20260902193529 | 97 | 136 | 6.0 | 12.0 | 0.00 | 0.00 | 0.00 | 38 | 1016.3 |
| 20260902192531 | 99 | 86 | 3.0 | 10.0 | 0.00 | 0.00 | 0.00 | 35 | 1016.4 |
| 20260902191532 | 98 | 182 | 5.0 | 12.0 | 0.00 | 0.00 | 0.00 | 35 | 1016.5 |
| 20260902190529 | 98 | 227 | 5.0 | 13.0 | 0.00 | 0.00 | 0.00 | 37 | 1016.6 |
| 20260902185530 | 98 | 203 | 5.0 | 14.0 | 0.00 | 0.00 | 0.00 | 38 | 1016.7 |
| 20260902184529 | 97 | 308 | 5.0 | 11.0 | 0.00 | 0.00 | 0.00 | 39 | 1016.9 |
| 20260902183531 | 97 | 173 | 9.0 | 20.0 | 0.00 | 0.00 | 0.00 | 39 | 1017.1 |
| 20260902182531 | 97 | 192 | 4.0 | 14.0 | 0.00 | 0.00 | 0.00 | 40 | 1017.1 |
| 20260902181528 | 96 | 157 | 6.0 | 14.0 | 0.00 | 0.00 | 0.00 | 40 | 1017.4 |
| 20260902180527 | 95 | 148 | 4.0 | 10.0 | 0.00 | 0.00 | 0.00 | 42 | 1017.5 |
| 20260902175527 | 96 | 115 | 3.0 | 8.0 | 0.00 | 0.00 | 0.00 | 41 | 1017.6 |
| 20260902174525 | 95 | 182 | 4.0 | 9.0 | 0.00 | 0.00 | 0.00 | 43 | 1017.8 |
| 20260902173523 | 94 | 166 | 5.0 | 13.0 | 0.00 | 0.00 | 0.00 | 43 | 1017.9 |
| 20260902172523 | 95 | 180 | 6.0 | 13.0 | 0.00 | 0.00 | 0.00 | 45 | 1018.1 |